EZY67LM LSZH-EGKK

Flight info

Callsign EZY67LM
Flight time 1h 22m
Altitude 34000
Route VEBIT T51 LASUN T14 LUMEL T10 TORPA DCT EDOPI DCT GIVOR DCT SORAL/N0429F380 DCT IBERA N853 DIK M624 BUB L608 DENUT L610 TEBRA
Aircraft A20N/M-SDE2E3FGHIJ1RWXYZ/LB1G1

Departure

Time 2026-05-04 12:18
Airport Zürich Airport (LSZH)

Arrival

Time 2026-05-04 13:41
Airport London Gatwick Airport (EGKK)
Time Latitude Longitude Altitude Speed Heading
2026-05-04 11:55 47.46198 8.55247 1397 ft 0 kts 186°
2026-05-04 12:09 47.46199 8.55247 1396 ft 1 kts 186°
2026-05-04 12:09 47.46213 8.55250 1407 ft 2 kts 186°
2026-05-04 12:09 47.46228 8.55252 1396 ft 2 kts 186°
2026-05-04 12:10 47.46239 8.55254 1406 ft 1 kts 186°
2026-05-04 12:10 47.46252 8.55256 1399 ft 2 kts 195°
2026-05-04 12:10 47.46266 8.55265 1404 ft 2 kts 224°
2026-05-04 12:10 47.46276 8.55281 1401 ft 2 kts 259°
2026-05-04 12:11 47.46276 8.55283 1401 ft 0 kts 263°
2026-05-04 12:12 47.46276 8.55282 1401 ft 1 kts 263°
2026-05-04 12:12 47.46274 8.55252 1400 ft 5 kts 263°
2026-05-04 12:12 47.46278 8.55186 1396 ft 8 kts 276°
2026-05-04 12:13 47.46285 8.55085 1398 ft 12 kts 276°
2026-05-04 12:14 47.45871 8.55557 1398 ft 16 kts 96°
2026-05-04 12:15 47.45860 8.55712 1404 ft 15 kts 95°
2026-05-04 12:15 47.45850 8.55874 1398 ft 17 kts 95°
2026-05-04 12:15 47.45838 8.56048 1401 ft 17 kts 97°
2026-05-04 12:15 47.45824 8.56219 1402 ft 18 kts 96°
2026-05-04 12:16 47.45810 8.56416 1398 ft 21 kts 96°
2026-05-04 12:16 47.45794 8.56637 1405 ft 22 kts 95°
2026-05-04 12:16 47.45778 8.56875 1399 ft 22 kts 97°
2026-05-04 12:16 47.45757 8.57010 1398 ft 13 kts 127°
2026-05-04 12:17 47.45680 8.57032 1402 ft 9 kts 201°
2026-05-04 12:17 47.45663 8.56976 1398 ft 0 kts 276°
2026-05-04 12:17 47.45665 8.56956 1398 ft 16 kts 277°
2026-05-04 12:17 47.45710 8.56377 1399 ft 95 kts 276°
2026-05-04 12:18 47.45806 8.55073 1405 ft 157 kts 275°
2026-05-04 12:18 47.45914 8.53366 1912 ft 164 kts 277°
2026-05-04 12:18 47.46053 8.51698 2737 ft 163 kts 278°
2026-05-04 12:18 47.46213 8.50033 3499 ft 166 kts 278°
2026-05-04 12:19 47.46300 8.48274 4088 ft 177 kts 271°
2026-05-04 12:19 47.46101 8.46377 4446 ft 201 kts 248°
2026-05-04 12:19 47.45300 8.44709 4927 ft 217 kts 219°
2026-05-04 12:19 47.44056 8.43345 5549 ft 228 kts 217°
2026-05-04 12:20 47.43252 8.42282 6109 ft 231 kts 221°
2026-05-04 12:20 47.42074 8.40540 6721 ft 250 kts 225°
2026-05-04 12:20 47.40912 8.38543 7268 ft 268 kts 230°
2026-05-04 12:20 47.39773 8.36327 8145 ft 272 kts 232°
2026-05-04 12:21 47.38711 8.33995 9058 ft 277 kts 240°
2026-05-04 12:21 47.37813 8.31432 10068 ft 277 kts 241°
2026-05-04 12:21 47.36914 8.28849 10696 ft 292 kts 241°
2026-05-04 12:21 47.35955 8.26127 11016 ft 314 kts 241°
2026-05-04 12:22 47.34899 8.23150 11515 ft 328 kts 241°
2026-05-04 12:22 47.33838 8.20167 12351 ft 330 kts 241°
2026-05-04 12:22 47.32779 8.17192 13191 ft 333 kts 241°
2026-05-04 12:22 47.31697 8.14159 13981 ft 336 kts 242°
2026-05-04 12:23 47.30603 8.11090 14670 ft 340 kts 241°
2026-05-04 12:23 47.29496 8.07975 15327 ft 345 kts 241°
2026-05-04 12:23 47.28393 8.04813 16030 ft 349 kts 245°
2026-05-04 12:23 47.27758 8.01343 16695 ft 356 kts 262°
2026-05-04 12:24 47.27915 7.97674 17348 ft 366 kts 281°
2026-05-04 12:24 47.28836 7.94136 17987 ft 375 kts 291°
2026-05-04 12:24 47.29948 7.90629 18580 ft 379 kts 291°
2026-05-04 12:24 47.31072 7.87097 19167 ft 383 kts 291°
2026-05-04 12:25 47.32199 7.83535 19775 ft 386 kts 291°
2026-05-04 12:25 47.33331 7.79923 20425 ft 389 kts 291°
2026-05-04 12:25 47.34464 7.76280 21050 ft 393 kts 290°
2026-05-04 12:25 47.35602 7.72606 21665 ft 396 kts 290°
2026-05-04 12:26 47.36754 7.68878 22211 ft 400 kts 290°
2026-05-04 12:26 47.37909 7.65134 22797 ft 404 kts 290°
2026-05-04 12:26 47.39078 7.61343 23329 ft 407 kts 290°
2026-05-04 12:26 47.40213 7.57500 23826 ft 408 kts 286°
2026-05-04 12:27 47.40980 7.53496 24307 ft 405 kts 277°
2026-05-04 12:27 47.41311 7.49426 24796 ft 403 kts 268°
2026-05-04 12:27 47.41274 7.45250 25236 ft 403 kts 264°
2026-05-04 12:27 47.41197 7.41149 25686 ft 406 kts 264°
2026-05-04 12:28 47.41125 7.36979 26125 ft 408 kts 264°
2026-05-04 12:28 47.41052 7.32780 26555 ft 410 kts 264°
2026-05-04 12:28 47.40975 7.28508 26977 ft 413 kts 264°
2026-05-04 12:28 47.40899 7.24314 27387 ft 415 kts 264°
2026-05-04 12:29 47.40820 7.20045 27772 ft 417 kts 264°
2026-05-04 12:29 47.40887 7.15749 28174 ft 422 kts 270°
2026-05-04 12:29 47.41308 7.11360 28522 ft 429 kts 277°
2026-05-04 12:29 47.41957 7.07052 28889 ft 432 kts 277°
2026-05-04 12:30 47.42606 7.02704 29225 ft 434 kts 277°
2026-05-04 12:30 47.43250 6.98331 29571 ft 436 kts 277°
2026-05-04 12:30 47.43892 6.93938 29905 ft 439 kts 276°
2026-05-04 12:30 47.44534 6.89525 30216 ft 441 kts 276°
2026-05-04 12:31 47.45179 6.85086 30535 ft 442 kts 276°
2026-05-04 12:31 47.45828 6.80643 30852 ft 444 kts 278°
2026-05-04 12:31 47.46839 6.76294 31158 ft 453 kts 290°
2026-05-04 12:31 47.48478 6.72278 31543 ft 461 kts 302°
2026-05-04 12:32 47.50689 6.68805 31982 ft 468 kts 315°
2026-05-04 12:32 47.56436 6.64078 32693 ft 483 kts 339°
2026-05-04 12:32 47.59693 6.63044 33098 ft 486 kts 349°
2026-05-04 12:33 47.63048 6.62463 33522 ft 485 kts 351°
2026-05-04 12:33 47.66399 6.61961 33834 ft 484 kts 351°
2026-05-04 12:33 47.69780 6.61408 33949 ft 481 kts 349°
2026-05-04 12:34 47.76400 6.60166 34014 ft 480 kts 349°
2026-05-04 12:34 47.82972 6.58843 34022 ft 479 kts 349°
2026-05-04 12:35 47.89564 6.57503 34015 ft 478 kts 349°
2026-05-04 12:35 47.96158 6.56102 34008 ft 478 kts 347°
2026-05-04 12:36 48.02715 6.54496 34019 ft 477 kts 347°
2026-05-04 12:36 48.09266 6.52896 34011 ft 477 kts 347°
2026-05-04 12:37 48.15794 6.51321 34024 ft 477 kts 347°
2026-05-04 12:37 48.22336 6.49744 34027 ft 476 kts 347°
2026-05-04 12:38 48.28882 6.48162 34014 ft 476 kts 347°
2026-05-04 12:38 48.35411 6.46579 34049 ft 477 kts 347°
2026-05-04 12:38 48.38695 6.45781 34305 ft 478 kts 347°
2026-05-04 12:39 48.41977 6.44983 34541 ft 479 kts 347°
2026-05-04 12:39 48.45263 6.44183 34852 ft 478 kts 347°
2026-05-04 12:39 48.48542 6.43385 35154 ft 476 kts 347°
2026-05-04 12:39 48.51805 6.42589 35449 ft 475 kts 347°
2026-05-04 12:40 48.55074 6.41790 35711 ft 474 kts 347°
2026-05-04 12:40 48.58307 6.40999 35972 ft 473 kts 347°
2026-05-04 12:40 48.61560 6.40202 36226 ft 473 kts 347°
2026-05-04 12:40 48.64822 6.39588 36462 ft 474 kts 353°
2026-05-04 12:41 48.68131 6.39457 36694 ft 476 kts 359°
2026-05-04 12:41 48.71366 6.39742 36916 ft 477 kts
2026-05-04 12:41 48.74678 6.40082 37143 ft 476 kts
2026-05-04 12:41 48.77977 6.40398 37363 ft 475 kts
2026-05-04 12:42 48.81280 6.40716 37574 ft 475 kts
2026-05-04 12:42 48.84567 6.41040 37773 ft 474 kts
2026-05-04 12:42 48.87858 6.41369 37975 ft 474 kts
2026-05-04 12:43 48.94442 6.42037 38032 ft 473 kts
2026-05-04 12:43 49.01007 6.42707 38020 ft 473 kts
2026-05-04 12:44 49.07574 6.43282 38012 ft 472 kts 356°
2026-05-04 12:44 49.14076 6.42407 38009 ft 467 kts 346°
2026-05-04 12:45 49.20335 6.40039 37990 ft 462 kts 341°
2026-05-04 12:45 49.26552 6.37527 37977 ft 461 kts 341°
2026-05-04 12:46 49.32735 6.35000 38000 ft 463 kts 341°
2026-05-04 12:46 49.38973 6.32425 38011 ft 463 kts 341°
2026-05-04 12:47 49.45196 6.29848 38027 ft 463 kts 341°
2026-05-04 12:47 49.51424 6.27261 38032 ft 464 kts 341°
2026-05-04 12:48 49.57680 6.24694 38024 ft 466 kts 341°
2026-05-04 12:48 49.63949 6.22132 38033 ft 466 kts 341°
2026-05-04 12:49 49.70211 6.19559 38033 ft 466 kts 341°
2026-05-04 12:49 49.76479 6.16975 38027 ft 466 kts 341°
2026-05-04 12:50 49.82672 6.14152 38011 ft 460 kts 333°
2026-05-04 12:50 49.88184 6.09422 38006 ft 449 kts 318°
2026-05-04 12:51 49.92804 6.03024 38001 ft 445 kts 311°
2026-05-04 12:51 49.97282 5.96393 37996 ft 445 kts 311°
2026-05-04 12:52 50.01758 5.89726 37995 ft 447 kts 311°
2026-05-04 12:52 50.06243 5.83010 37991 ft 447 kts 311°
2026-05-04 12:53 50.10703 5.76314 37988 ft 445 kts 311°
2026-05-04 12:53 50.15166 5.69595 37990 ft 446 kts 311°
2026-05-04 12:54 50.19622 5.62871 37988 ft 446 kts 311°
2026-05-04 12:54 50.24068 5.56144 37988 ft 446 kts 311°
2026-05-04 12:55 50.28524 5.49377 37968 ft 447 kts 311°
2026-05-04 12:55 50.32978 5.42601 37976 ft 446 kts 311°
2026-05-04 12:56 50.37426 5.35816 37969 ft 446 kts 311°
2026-05-04 12:56 50.41872 5.29014 37966 ft 446 kts 311°
2026-05-04 12:57 50.46307 5.22208 37965 ft 446 kts 311°
2026-05-04 12:57 50.50734 5.15397 37965 ft 446 kts 311°
2026-05-04 12:58 50.55159 5.08568 37975 ft 448 kts 311°
2026-05-04 12:58 50.59594 5.01703 37980 ft 451 kts 311°
2026-05-04 12:59 50.64048 4.94796 37975 ft 450 kts 311°
2026-05-04 12:59 50.68502 4.87870 37984 ft 450 kts 311°
2026-05-04 13:00 50.72959 4.80925 37987 ft 450 kts 311°
2026-05-04 13:00 50.77411 4.73968 37983 ft 450 kts 311°
2026-05-04 13:01 50.81133 4.68137 38008 ft 450 kts 311°
2026-05-04 13:01 50.85556 4.61186 37986 ft 451 kts 311°
2026-05-04 13:02 50.89848 4.53908 37985 ft 447 kts 304°
2026-05-04 13:02 50.93274 4.45841 37983 ft 444 kts 297°
2026-05-04 13:03 50.96470 4.37539 37986 ft 444 kts 297°
2026-05-04 13:03 50.99705 4.29130 37981 ft 444 kts 297°
2026-05-04 13:04 51.02886 4.20801 37979 ft 444 kts 297°
2026-05-04 13:04 51.06082 4.12390 37983 ft 445 kts 297°
2026-05-04 13:05 51.09301 4.03894 37988 ft 446 kts 297°
2026-05-04 13:05 51.12497 3.95430 37988 ft 447 kts 297°
2026-05-04 13:06 51.15668 3.87004 37979 ft 446 kts 297°
2026-05-04 13:06 51.18846 3.78532 37989 ft 445 kts 297°
2026-05-04 13:07 51.21885 3.70006 37980 ft 445 kts 292°
2026-05-04 13:07 51.24124 3.60811 37983 ft 440 kts 283°
2026-05-04 13:08 51.25503 3.51333 37984 ft 438 kts 279°
2026-05-04 13:08 51.26774 3.41872 37855 ft 439 kts 279°
2026-05-04 13:08 51.27415 3.37048 37585 ft 437 kts 278°
2026-05-04 13:09 51.28029 3.32322 37328 ft 435 kts 278°
2026-05-04 13:09 51.28622 3.27706 37081 ft 437 kts 278°
2026-05-04 13:09 51.29230 3.22949 36825 ft 437 kts 277°
2026-05-04 13:09 51.29836 3.18199 36568 ft 436 kts 277°
2026-05-04 13:10 51.30440 3.13460 36313 ft 434 kts 277°
2026-05-04 13:10 51.31040 3.08730 36055 ft 434 kts 277°
2026-05-04 13:10 51.31631 3.04065 35782 ft 434 kts 277°
2026-05-04 13:10 51.32229 2.99320 35215 ft 437 kts 276°
2026-05-04 13:11 51.32836 2.94490 34476 ft 439 kts 276°
2026-05-04 13:11 51.33432 2.89754 33658 ft 441 kts 276°
2026-05-04 13:11 51.34038 2.84911 33084 ft 435 kts 276°
2026-05-04 13:11 51.34619 2.80243 32276 ft 435 kts 276°
2026-05-04 13:12 51.35209 2.75442 31181 ft 443 kts 276°
2026-05-04 13:12 51.35803 2.70609 30464 ft 442 kts 277°
2026-05-04 13:12 51.36396 2.65806 29932 ft 436 kts 277°
2026-05-04 13:12 51.36980 2.61075 29356 ft 430 kts 277°
2026-05-04 13:13 51.37550 2.56437 28839 ft 423 kts 277°
2026-05-04 13:13 51.38112 2.51832 28463 ft 420 kts 277°
2026-05-04 13:13 51.38670 2.47234 27924 ft 420 kts 277°
2026-05-04 13:13 51.39222 2.42666 27395 ft 416 kts 277°
2026-05-04 13:14 51.39767 2.38156 26899 ft 410 kts 277°
2026-05-04 13:14 51.40304 2.33700 26448 ft 405 kts 277°
2026-05-04 13:14 51.40833 2.29284 25912 ft 402 kts 278°
2026-05-04 13:14 51.41356 2.24913 25373 ft 398 kts 278°
2026-05-04 13:15 51.41881 2.20583 24846 ft 395 kts 278°
2026-05-04 13:15 51.42408 2.16285 24295 ft 391 kts 278°
2026-05-04 13:15 51.42929 2.12015 23765 ft 388 kts 278°
2026-05-04 13:15 51.43444 2.07785 23193 ft 385 kts 278°
2026-05-04 13:16 51.43951 2.03608 22662 ft 380 kts 278°
2026-05-04 13:16 51.44449 1.99480 22134 ft 375 kts 278°
2026-05-04 13:16 51.44933 1.95403 21624 ft 371 kts 278°
2026-05-04 13:16 51.45404 1.91362 21122 ft 367 kts 278°
2026-05-04 13:17 51.45869 1.87347 20595 ft 364 kts 278°
2026-05-04 13:17 51.46330 1.83377 20092 ft 361 kts 278°
2026-05-04 13:17 51.46794 1.79384 19583 ft 359 kts 279°
2026-05-04 13:17 51.47243 1.75514 19093 ft 357 kts 279°
2026-05-04 13:18 51.47695 1.71609 18590 ft 355 kts 279°
2026-05-04 13:18 51.48143 1.67726 18075 ft 354 kts 279°
2026-05-04 13:18 51.48494 1.63847 17566 ft 349 kts 271°
2026-05-04 13:18 51.48376 1.59992 17082 ft 344 kts 259°
2026-05-04 13:19 51.47786 1.56316 16614 ft 339 kts 248°
2026-05-04 13:19 51.46959 1.52795 16142 ft 336 kts 248°
2026-05-04 13:19 51.46146 1.49286 15664 ft 334 kts 249°
2026-05-04 13:19 51.45345 1.45804 15187 ft 332 kts 249°
2026-05-04 13:20 51.44548 1.42345 14723 ft 330 kts 249°
2026-05-04 13:20 51.43573 1.39039 14270 ft 326 kts 237°
2026-05-04 13:20 51.42178 1.36206 13866 ft 322 kts 224°
2026-05-04 13:20 51.40412 1.33902 13690 ft 336 kts 216°
2026-05-04 13:21 51.38481 1.31635 13450 ft 347 kts 216°
2026-05-04 13:21 51.36573 1.29378 13228 ft 343 kts 217°
2026-05-04 13:21 51.34672 1.27126 13005 ft 340 kts 217°
2026-05-04 13:21 51.32821 1.24933 12788 ft 340 kts 217°
2026-05-04 13:22 51.30915 1.22677 12542 ft 341 kts 216°
2026-05-04 13:22 51.29156 1.20602 12336 ft 338 kts 216°
2026-05-04 13:22 51.27270 1.18378 12115 ft 335 kts 216°
2026-05-04 13:22 51.25389 1.16163 11892 ft 337 kts 216°
2026-05-04 13:23 51.23504 1.13947 11659 ft 337 kts 216°
2026-05-04 13:23 51.21619 1.11733 11435 ft 334 kts 216°
2026-05-04 13:23 51.19762 1.09556 11227 ft 331 kts 217°
2026-05-04 13:23 51.17938 1.07297 10976 ft 330 kts 225°
2026-05-04 13:24 51.16681 1.04388 10741 ft 320 kts 248°
2026-05-04 13:24 51.16076 1.00992 10495 ft 310 kts 256°
2026-05-04 13:24 51.15590 0.97751 10259 ft 301 kts 256°
2026-05-04 13:25 51.14653 0.91444 9742 ft 285 kts 256°
2026-05-04 13:25 51.14210 0.88402 9477 ft 280 kts 256°
2026-05-04 13:25 51.13761 0.85364 9208 ft 283 kts 256°
2026-05-04 13:25 51.13318 0.82340 8942 ft 278 kts 256°
2026-05-04 13:26 51.12876 0.79359 8690 ft 276 kts 256°
2026-05-04 13:26 51.12436 0.76394 8440 ft 276 kts 256°
2026-05-04 13:26 51.11987 0.73410 8172 ft 277 kts 256°
2026-05-04 13:26 51.11542 0.70459 8037 ft 273 kts 256°
2026-05-04 13:27 51.11092 0.67502 7997 ft 276 kts 256°
2026-05-04 13:27 51.10649 0.64597 7999 ft 276 kts 256°
2026-05-04 13:27 51.10200 0.61646 7993 ft 275 kts 256°
2026-05-04 13:27 51.09749 0.58684 7992 ft 274 kts 256°
2026-05-04 13:28 51.09302 0.55741 7988 ft 274 kts 256°
2026-05-04 13:28 51.08849 0.52777 7998 ft 277 kts 256°
2026-05-04 13:28 51.08396 0.49820 7992 ft 275 kts 256°
2026-05-04 13:28 51.07941 0.46850 7992 ft 276 kts 256°
2026-05-04 13:29 51.07498 0.43883 7996 ft 275 kts 256°
2026-05-04 13:29 51.07058 0.40910 7992 ft 277 kts 256°
2026-05-04 13:29 51.06618 0.37943 7998 ft 276 kts 256°
2026-05-04 13:29 51.06180 0.34978 7994 ft 276 kts 256°
2026-05-04 13:30 51.05735 0.31995 7990 ft 276 kts 256°
2026-05-04 13:30 51.05294 0.29030 8001 ft 277 kts 256°
2026-05-04 13:30 51.04847 0.26055 7995 ft 276 kts 256°
2026-05-04 13:30 51.04406 0.23095 7993 ft 275 kts 256°
2026-05-04 13:31 51.03961 0.20120 7998 ft 276 kts 256°
2026-05-04 13:31 51.03523 0.17164 8003 ft 275 kts 256°
2026-05-04 13:31 51.03081 0.14202 7911 ft 275 kts 256°
2026-05-04 13:31 51.02640 0.11263 7672 ft 273 kts 256°
2026-05-04 13:32 51.02196 0.08329 7298 ft 273 kts 256°
2026-05-04 13:32 51.01758 0.05431 7191 ft 271 kts 258°
2026-05-04 13:32 51.01727 0.02434 7092 ft 275 kts 275°
2026-05-04 13:32 51.01941 -0.00570 7030 ft 273 kts 276°
2026-05-04 13:33 51.02167 -0.03571 7016 ft 274 kts 276°
2026-05-04 13:33 51.02401 -0.06570 6959 ft 273 kts 276°
2026-05-04 13:33 51.02631 -0.09561 6674 ft 272 kts 276°
2026-05-04 13:33 51.02851 -0.12544 6302 ft 272 kts 276°
2026-05-04 13:34 51.03066 -0.15521 5916 ft 270 kts 276°
2026-05-04 13:34 51.03278 -0.18477 5507 ft 269 kts 276°
2026-05-04 13:34 51.03481 -0.21434 5123 ft 268 kts 276°
2026-05-04 13:34 51.03680 -0.24373 4746 ft 267 kts 276°
2026-05-04 13:35 51.03875 -0.27300 4355 ft 266 kts 276°
2026-05-04 13:35 51.04251 -0.33122 3582 ft 264 kts 276°
2026-05-04 13:35 51.04434 -0.36018 3243 ft 261 kts 276°
2026-05-04 13:36 51.04600 -0.38715 3151 ft 265 kts 276°
2026-05-04 13:36 51.04986 -0.41555 3043 ft 263 kts 296°
2026-05-04 13:36 51.06118 -0.43777 2992 ft 260 kts 325°
2026-05-04 13:36 51.07762 -0.44849 2995 ft 253 kts 354°
2026-05-04 13:37 51.09427 -0.44516 2987 ft 235 kts 24°
2026-05-04 13:37 51.10654 -0.42974 2891 ft 221 kts 58°
2026-05-04 13:37 51.11257 -0.40809 2796 ft 209 kts 71°
2026-05-04 13:37 51.11557 -0.39365 2643 ft 206 kts 72°
2026-05-04 13:38 51.12101 -0.36532 2308 ft 195 kts 73°
2026-05-04 13:38 51.12497 -0.34532 2092 ft 185 kts 71°
2026-05-04 13:38 51.12887 -0.32673 1846 ft 168 kts 73°
2026-05-04 13:38 51.13161 -0.31006 1677 ft 150 kts 77°
2026-05-04 13:39 51.13380 -0.29424 1422 ft 143 kts 77°
2026-05-04 13:39 51.13594 -0.27897 1175 ft 140 kts 77°
2026-05-04 13:39 51.13806 -0.26388 963 ft 139 kts 77°
2026-05-04 13:39 51.14016 -0.24900 762 ft 138 kts 77°
2026-05-04 13:40 51.14215 -0.23417 586 ft 136 kts 78°
2026-05-04 13:40 51.14413 -0.21964 395 ft 132 kts 78°
2026-05-04 13:40 51.14601 -0.20585 234 ft 121 kts 76°
2026-05-04 13:40 51.14717 -0.19742 213 ft 109 kts 77°
2026-05-04 13:41 51.14877 -0.18583 212 ft 55 kts 77°
2026-05-04 13:41 51.14921 -0.18271 207 ft 31 kts 77°
2026-05-04 13:41 51.14986 -0.17958 217 ft 30 kts 63°
2026-05-04 13:42 51.15140 -0.17764 205 ft 13 kts 352°
2026-05-04 13:42 51.15205 -0.17778 209 ft 0 kts 352°
2026-05-04 13:43 51.15208 -0.17779 208 ft 2 kts 350°
2026-05-04 13:44 51.15243 -0.17815 208 ft 10 kts 291°
2026-05-04 13:44 51.15231 -0.17957 207 ft 14 kts 257°
2026-05-04 13:44 51.15226 -0.18080 208 ft 9 kts 298°
2026-05-04 13:44 51.15289 -0.18114 213 ft 11 kts 348°
2026-05-04 13:45 51.15353 -0.18137 204 ft 7 kts 347°
2026-05-04 13:45 51.15394 -0.18151 211 ft 7 kts 347°
2026-05-04 13:45 51.15448 -0.18154 210 ft 9 kts 27°
2026-05-04 13:45 51.15464 -0.18065 213 ft 10 kts 78°
2026-05-04 13:46 51.15481 -0.17942 208 ft 13 kts 79°
2026-05-04 13:46 51.15498 -0.17809 204 ft 12 kts 77°
2026-05-04 13:46 51.15512 -0.17707 204 ft 10 kts 77°
2026-05-04 13:46 51.15524 -0.17623 208 ft 1 kts 77°
2026-05-04 13:47 51.15525 -0.17613 206 ft 1 kts 77°
2026-05-04 13:47 51.15530 -0.17580 208 ft 5 kts 77°
2026-05-04 13:47 51.15540 -0.17513 204 ft 6 kts 73°
2026-05-04 13:47 51.15552 -0.17512 212 ft 1 kts 321°
2026-05-04 13:48 51.15567 -0.17533 208 ft 0 kts 323°
2026-05-04 13:48 51.15577 -0.17543 207 ft 2 kts 325°
2026-05-04 13:48 51.15591 -0.17557 208 ft 2 kts 329°
2026-05-04 13:48 51.15598 -0.17564 206 ft 1 kts 330°
2026-05-04 13:49 51.15599 -0.17565 206 ft 0 kts 330°